Location: Innsbruck
(47.2657°N, 11.3914°E)
Time: 16:48:08
(UTC+02:00)

Nauka - Pass Details

Date: 23 September 2021
Orbit: 417 x 423 km, 51.6° (Epoch: 20 October)

Event Time Altitude Azimuth Distance (km) Brightness Sun altitude
Rises 21:44:43 0° 286° (WNW) 2,366 ? -25.9°
Reaches altitude 10° 21:46:54 10° 295° (WNW) 1,502 ? -26.2°
Enters shadow 21:48:43 26° 315° (NW) 878 ? -26.5°
